Tracking 19247 objects as of 26-Sep-2018
HD Live streaming from Space Station
objects crossing your sky now

FENGYUN 1C DEB

Track FENGYUN 1C DEB now!
10-day predictions


NORAD ID: 30820
Int'l Code: 1999-025AVE
Perigee: 836.9 km
Apogee: 929.0 km
Inclination: 98.6 °
Period: 102.5 minutes
Semi major axis: 7253 km
RCS: 0.0172 m2 (small)
Launch date: May 10, 1999
Source: People's Republic of China (PRC)
Launch site: Taiyaun Space Center, China (TSC)

Note: This is SATELLITE DEBRIS
aabbcc
Your satellite tracking list
Your tracking list is empty




NASA's NSSDC Master Catalog

Two Line Element Set (TLE):
1 30820U 99025AVE 18267.93661291 +.00000480 +00000-0 +31603-3 0  9997
2 30820 098.5888 070.7546 0063530 104.2152 047.3127 14.05209693592898
Source of the keplerian elements: AFSPC